View from above orbital plane
|
View from above satellite
|
Ground track
|
The orbit data is extracted from the following two-line orbital elements,
1 82U 61004B 21058.08598704 -.00000068 00000-0 -30277-4 0 9997
2 82 38.8648 335.5119 1176305 232.5679 116.2191 12.26044626839063
Epoch (UTC): | 27 February 2021 02:03:49 |
Eccentricity: | 0.1176305 |
inclination: | 38.8648° |
perigee height: | 632 km |
apogee height: | 2501 km |
right ascension of ascending node: | 335.5119° |
argument of perigee: | 232.5679° |
revolutions per day: | 12.26044626 |
mean anomaly at epoch: | 116.2191° |
orbit number at epoch: | 83906 |
The dashed part of the orbit path shows where the satellite is in the earth's shadow,
|
|